Location: Forst
(46.9333°N, 15.4333°E)
Time: 21:13:46
(UTC+00:00)

N. Korean satellite - Pass Details

Date: 24 September 2021
Orbit: 450 x 495 km, 97.3° (Epoch: 25 October)

Event Time Altitude Azimuth Distance (km) Brightness Sun altitude
Rises 03:58:46 0° 18° (NNE) 2,522 10.6 -9.2°
Reaches altitude 10° 04:00:52 10° 25° (NNE) 1,647 9.7 -8.8°
Maximum altitude 04:04:17 45° 99° (E) 661 7.8 -8.2°
Drops below altitude 10° 04:07:43 10° 173° (S) 1,658 9.3 -7.6°
Sets 04:09:51 0° 180° (S) 2,541 10.1 -7.3°
